This is the latest recevied weather packets stored in our database for station/object KC3BAN-3. If no packets are shown the sender has not sent any weather packets the latest 10 day(s).
| Time | Temp. | Humidity | Pressure | Rain* | Wind** | Luminosity | Snow |
|---|---|---|---|---|---|---|---|
| 1777723412 | 13.33° C | 97% | 1012 hPa | 1.02 mm | - | - | - |
| 1777723113 | 13.33° C | 97% | 1012 hPa | 1.27 mm | - | - | - |
| 1777722808 | 13.33° C | 97% | 1012 hPa | 1.27 mm | - | - | - |
| 1777722508 | 13.33° C | 97% | 1012.1 hPa | 1.27 mm | - | - | - |
| 1777722209 | 13.33° C | 97% | 1012 hPa | 1.52 mm | - | - | - |
| 1777721908 | 13.33° C | 97% | 1012 hPa | 1.52 mm | - | - | - |
| 1777721736 | 13.33° C | 97% | 1012 hPa | 1.78 mm | - | - | - |
| 1777721435 | 13.33° C | 97% | 1012.1 hPa | 1.78 mm | - | - | - |
| 1777721008 | 13.33° C | 97% | 1012.1 hPa | 1.78 mm | - | - | - |
| 1777720708 | 13.33° C | 97% | 1012.1 hPa | 1.78 mm | - | - | - |
| 1777720408 | 13.33° C | 97% | 1012.1 hPa | 2.03 mm | - | - | - |
| 1777720249 | 13.33° C | 97% | 1012 hPa | 2.03 mm | - | - | - |
| 1777719806 | 13.33° C | 97% | 1012.1 hPa | 2.29 mm | - | - | - |
| 1777719506 | 13.33° C | 97% | 1011.9 hPa | 2.29 mm | - | - | - |
| 1777719335 | 13.33° C | 97% | 1012.1 hPa | 2.79 mm | - | - | - |
| 1777718906 | 13.33° C | 97% | 1012.1 hPa | 2.54 mm | - | - | - |
| 1777718606 | 13.33° C | 97% | 1012.1 hPa | 2.54 mm | - | - | - |
| 1777718305 | 13.33° C | 97% | 1012 hPa | 2.54 mm | - | - | - |
| 1777718132 | 13.33° C | 97% | 1011.9 hPa | 2.54 mm | - | - | - |
| 1777717706 | 13.33° C | 97% | 1011.8 hPa | 2.54 mm | - | - | - |
| 1777717401 | 13.33° C | 97% | 1011.6 hPa | 2.79 mm | - | - | - |
| 1777717100 | 13.33° C | 97% | 1011.5 hPa | 2.79 mm | - | - | - |
| 1777716801 | 13.33° C | 97% | 1011.5 hPa | 2.79 mm | - | - | - |
| 1777716500 | 13.33° C | 97% | 1011.5 hPa | 2.54 mm | - | - | - |
| 1777716203 | 13.33° C | 97% | 1011.5 hPa | 2.54 mm | - | - | - |
* Rain latest hour (hover to see other rain measurements)
** Current wind speed in m/s (hover to see current wind gust speed)